Limon, CO

5:14 AM MST on January 16, 2018 (GMT -0700)
Limon Municipal

Weather History for KLIC - March, 2013

Change the Weather History Date:

Thursday, March 14, 2013

  Actual Average Record
Temperature  
Mean Temperature 48 °F -  
Max Temperature 66 °F - 77 °F (2003)
Min Temperature 29 °F - 3 °F (1997)
Degree Days  
Heating Degree Days 17    
Month to date heating degree days 395  
Cooling Degree Days 0    
Month to date cooling degree days 0  
Moisture  
Dew Point 26 °F    
Average Humidity 55    
Maximum Humidity 92    
Minimum Humidity 18    
Precipitation  
Precipitation 0.00 in - 0.95 in (2005)
Month to date precipitation 0.49  
Year to date precipitation 1.35  
Sea Level Pressure  
Sea Level Pressure 30.18 in    
Wind  
Wind Speed 5 mph (NW)    
Max Wind Speed 13 mph    
Max Gust Speed 17 mph    
Visibility 10 miles    
Events      
T = Trace of Precipitation, MM = Missing Value Source: NWS Daily Summary

Daily Weather History Graph

Daily Weather History Graph

Search for Another Location

Airport or City:

Trip Planner

Search our weather history database for the weather conditions in past years. The results will help you decide how hot, cold, wet, or windy it might be!

Date:

Astronomy

Mar. 14, 2013 Rise Set
Actual Time 7:07 AM MDT 7:00 PM MDT
Civil Twilight 6:40 AM MDT 7:27 PM MDT
Nautical Twilight 6:09 AM MDT 7:58 PM MDT
Astronomical Twilight 5:37 AM MDT 8:30 PM MDT
Moon 8:23 AM MDT (3/14) 10:18 PM MDT (3/14)
Length of Visible Light 12h 47m
Length of Day
11h 53m
Waxing Crescent, 9% of the Moon is Illuminated
Mar 14
Waxing Crescent
Mar 19
First Quarter
Mar 27
Full
Apr 2
Last Quarter
Apr 10
New

Hourly Weather History & Observations

Time (MDT) Temp. Windchill Dew Point Humidity Pressure Visibility Wind Dir Wind Speed Gust Speed Precip Events Conditions
12:55 AM 30.9 °F 26.2 °F 27.0 °F 85% 30.22 in 10.0 mi North 4.6 mph - N/A   Clear
1:55 AM 28.9 °F 22.8 °F 26.1 °F 89% 30.22 in 10.0 mi NNW 5.8 mph - N/A   Clear
2:55 AM 35.1 °F 27.9 °F 28.0 °F 76% 30.18 in 10.0 mi WNW 9.2 mph - N/A   Clear
3:55 AM 34.0 °F - 27.0 °F 75% 30.18 in 10.0 mi Calm Calm - N/A   Clear
4:55 AM 37.0 °F 34.5 °F 27.0 °F 67% 30.18 in 10.0 mi North 3.5 mph - N/A   Clear
5:55 AM 36.0 °F 30.3 °F 26.1 °F 67% 30.20 in 10.0 mi North 6.9 mph - N/A   Clear
6:55 AM 35.1 °F 30.1 °F 26.1 °F 70% 30.25 in 10.0 mi NNW 5.8 mph - N/A   Clear
7:55 AM 37.9 °F 34.4 °F 27.0 °F 65% 30.28 in 10.0 mi NNW 4.6 mph - N/A   Clear
8:55 AM 45.0 °F 40.6 °F 28.9 °F 53% 30.30 in 10.0 mi WNW 8.1 mph - N/A   Clear
9:55 AM 54.0 °F - 28.9 °F 38% 30.29 in 10.0 mi WNW 5.8 mph - N/A   Clear
10:55 AM 59.0 °F - 23.0 °F 25% 30.27 in 10.0 mi NNW 10.4 mph - N/A   Clear
11:55 AM 61.0 °F - 21.9 °F 22% 30.25 in 10.0 mi NW 3.5 mph - N/A   Clear
12:55 PM 63.0 °F - 19.9 °F 19% 30.22 in 10.0 mi Variable 4.6 mph - N/A   Clear
1:55 PM 64.0 °F - 21.9 °F 20% 30.18 in 10.0 mi Variable 3.5 mph - N/A   Clear
2:55 PM 64.9 °F - 23.0 °F 20% 30.14 in 10.0 mi SSW 9.2 mph - N/A   Clear
3:55 PM 64.9 °F - 21.0 °F 19% 30.13 in 10.0 mi Variable 3.5 mph - N/A   Clear
4:55 PM 66.0 °F - 21.0 °F 18% 30.09 in 10.0 mi South 4.6 mph - N/A   Clear
5:55 PM 62.1 °F - 23.0 °F 22% 30.11 in 10.0 mi South 5.8 mph - N/A   Clear
6:55 PM 54.0 °F - 28.0 °F 37% 30.13 in 10.0 mi SSE 4.6 mph - N/A   Clear
7:55 PM 43.0 °F - 28.9 °F 58% 30.17 in 10.0 mi Calm Calm - N/A   Clear
8:55 PM 42.1 °F 40.2 °F 28.9 °F 60% 30.14 in 10.0 mi ESE 3.5 mph - N/A   Clear
9:55 PM 39.9 °F 36.7 °F 30.0 °F 68% 30.12 in 10.0 mi NNW 4.6 mph - N/A   Clear
10:55 PM 43.0 °F 40.3 °F 28.9 °F 58% 30.09 in 10.0 mi NNW 4.6 mph - N/A   Clear
11:55 PM 50.0 °F - 27.0 °F 41% 30.04 in 10.0 mi WNW 6.9 mph - N/A   Clear